User: anonymous
Location: Unspecified
(0.0000°N, 0.0000°E)
Time: 05:19:52
(UTC+02:00)
Language:

Cosmos 773 Rocket - Orbit

View from above orbital plane
View from above orbital plane
View from above satellite
View from above satellite

Ground track
Ground track

The orbit data is extracted from the following two-line orbital elements,

1 08344U 75094B   14113.63026249  .00000323  00000-0  11345-3 0  4457
2 08344 074.0581 085.2441 0023194 274.9896 207.2388 14.38729545 20206
Epoch (UTC): 23 April 2014 15:07:34
Eccentricity: 0.0023194
inclination: 74.0581°
perigee height: 746 km
apogee height: 779 km
right ascension of ascending node: 85.2441°
argument of perigee: 274.9896°
revolutions per day: 14.38729545
mean anomaly at epoch: 207.2388°
orbit number at epoch: 2020

The dashed part of the orbit path shows where the satellite is in the earth's shadow,  

DLR